METAR LSZS 230850Z VRB01KT CAVOK 19/07 Q1029 RMK G=
Diese Daten sind ohne Gewähr und dürfen nicht für die Flugvorbereitung verwendet werden.
Information contained in this website shall not be used for flight operation purposes.